| time (UTC) | temp F | wind direction | speed MPH | gust MPH | rain 1hr in | rain 24hr in | rain mn in | humidity % | barometer mb |
| 20260904233052 | 95 | 268 | 2.0 | 8.0 | 0.00 | 0.00 | 0.00 | 50 | 1012.1 |
| 20260904231535 | 95 | 262 | 2.0 | 7.0 | 0.00 | 0.00 | 0.00 | 50 | 1012.2 |
| 20260904230035 | 95 | 266 | 3.0 | 8.0 | 0.00 | 0.00 | 0.00 | 48 | 1012.3 |
| 20260904230022 | 96 | 265 | 3.0 | 7.0 | 0.00 | 0.00 | 0.00 | 49 | 1011.1 |
| 20260904224545 | 96 | 259 | 3.0 | 9.0 | 0.00 | 0.00 | 0.00 | 49 | 1012.3 |
| 20260904223041 | 96 | 248 | 2.0 | 11.0 | 0.00 | 0.00 | 0.00 | 48 | 1012.2 |
| 20260904221537 | 96 | 267 | 2.0 | 10.0 | 0.00 | 0.00 | 0.00 | 50 | 1012.3 |
| 20260904220036 | 96 | 268 | 3.0 | 9.0 | 0.00 | 0.00 | 0.00 | 49 | 1012.3 |
| 20260904214543 | 96 | 271 | 3.0 | 11.0 | 0.00 | 0.00 | 0.00 | 50 | 1012.4 |
| 20260904213037 | 96 | 256 | 2.0 | 8.0 | 0.00 | 0.00 | 0.00 | 49 | 1012.6 |
| 20260904211537 | 96 | 278 | 4.0 | 10.0 | 0.00 | 0.00 | 0.00 | 48 | 1012.7 |
| 20260904210042 | 96 | 266 | 4.0 | 12.0 | 0.00 | 0.00 | 0.00 | 49 | 1012.7 |
| 20260904210023 | 96 | 252 | 4.0 | 11.0 | 0.00 | 0.00 | 0.00 | 49 | 1011.6 |
| 20260904204535 | 96 | 270 | 5.0 | 11.0 | 0.00 | 0.00 | 0.00 | 46 | 1012.9 |
| 20260904203040 | 95 | 258 | 5.0 | 11.0 | 0.00 | 0.00 | 0.00 | 48 | 1013.1 |
| 20260904201539 | 96 | 265 | 5.0 | 9.0 | 0.00 | 0.00 | 0.00 | 49 | 1013.2 |
| 20260904200036 | 95 | 224 | 4.0 | 9.0 | 0.00 | 0.00 | 0.00 | 49 | 1013.3 |
| 20260904200015 | 96 | 190 | 4.0 | 8.0 | 0.00 | 0.00 | 0.00 | 53 | 1012.2 |
| 20260904194534 | 95 | 267 | 3.0 | 10.0 | 0.00 | 0.00 | 0.00 | 52 | 1013.5 |
| 20260904193043 | 94 | 287 | 5.0 | 13.0 | 0.00 | 0.00 | 0.00 | 54 | 1013.6 |
| 20260904191537 | 93 | 293 | 6.0 | 13.0 | 0.00 | 0.00 | 0.00 | 51 | 1013.7 |
| 20260904190037 | 93 | 269 | 4.0 | 12.0 | 0.00 | 0.00 | 0.00 | 53 | 1013.8 |
| 20260904190023 | 93 | 278 | 4.0 | 10.0 | 0.00 | 0.00 | 0.00 | 53 | 1012.5 |
| 20260904184545 | 92 | 290 | 5.0 | 13.0 | 0.00 | 0.00 | 0.00 | 53 | 1013.9 |
| 20260904183038 | 92 | 215 | 6.0 | 14.0 | 0.00 | 0.00 | 0.00 | 54 | 1014.0 |
| 20260904181541 | 91 | 240 | 4.0 | 13.0 | 0.00 | 0.00 | 0.00 | 56 | 1014.0 |
| 20260904180049 | 91 | 205 | 5.0 | 13.0 | 0.00 | 0.00 | 0.00 | 56 | 1014.1 |
| 20260904180031 | 91 | 269 | 5.0 | 12.0 | 0.00 | 0.00 | 0.00 | 56 | 1012.9 |
| 20260904174539 | 90 | 292 | 5.0 | 14.0 | 0.00 | 0.00 | 0.00 | 57 | 1014.3 |
| 20260904173042 | 90 | 249 | 7.0 | 14.0 | 0.00 | 0.00 | 0.00 | 58 | 1014.5 |
| 20260904171535 | 89 | 268 | 7.0 | 16.0 | 0.00 | 0.00 | 0.00 | 59 | 1014.5 |
| 20260904170034 | 89 | 280 | 4.0 | 12.0 | 0.00 | 0.00 | 0.00 | 61 | 1014.6 |
| 20260904170021 | 89 | 271 | 5.0 | 11.0 | 0.00 | 0.00 | 0.00 | 61 | 1013.4 |
| 20260904164534 | 88 | 235 | 8.0 | 15.0 | 0.00 | 0.00 | 0.00 | 61 | 1014.8 |
| 20260904163033 | 87 | 286 | 4.0 | 18.0 | 0.00 | 0.00 | 0.00 | 64 | 1014.7 |
| 20260904161536 | 87 | 265 | 6.0 | 14.0 | 0.00 | 0.00 | 0.00 | 63 | 1014.8 |
| 20260904160040 | 86 | 281 | 4.0 | 16.0 | 0.00 | 0.00 | 0.00 | 66 | 1014.7 |
| 20260904160029 | 87 | 302 | 5.0 | 15.0 | 0.00 | 0.00 | 0.00 | 65 | 1013.7 |
| 20260904154534 | 86 | 226 | 5.0 | 14.0 | 0.00 | 0.00 | 0.00 | 66 | 1014.9 |
| 20260904153038 | 85 | 294 | 6.0 | 13.0 | 0.00 | 0.00 | 0.00 | 68 | 1014.9 |
| 20260904151538 | 84 | 265 | 6.0 | 13.0 | 0.00 | 0.00 | 0.00 | 68 | 1014.9 |
| 20260904150041 | 83 | 265 | 6.0 | 12.0 | 0.00 | 0.00 | 0.00 | 70 | 1014.9 |
| 20260904150036 | 84 | 284 | 6.0 | 11.0 | 0.00 | 0.00 | 0.00 | 70 | 1013.8 |
| 20260904144537 | 83 | 304 | 4.0 | 11.0 | 0.00 | 0.00 | 0.00 | 71 | 1014.8 |
| 20260904143035 | 82 | 267 | 4.0 | 10.0 | 0.00 | 0.00 | 0.00 | 73 | 1014.7 |
| 20260904141539 | 81 | 276 | 6.0 | 12.0 | 0.00 | 0.00 | 0.00 | 75 | 1014.6 |
| 20260904140034 | 80 | 282 | 4.0 | 9.0 | 0.00 | 0.00 | 0.00 | 77 | 1014.9 |
| 20260904140028 | 80 | 268 | 5.0 | 7.0 | 0.00 | 0.00 | 0.00 | 78 | 1013.8 |
| 20260904134536 | 78 | 265 | 3.0 | 8.0 | 0.00 | 0.00 | 0.00 | 81 | 1014.8 |
| 20260904133037 | 77 | 260 | 2.0 | 7.0 | 0.00 | 0.00 | 0.00 | 83 | 1014.8 |
| 20260904131533 | 76 | 0 | 1.0 | 8.0 | 0.00 | 0.00 | 0.00 | 84 | 1014.6 |
| 20260904130036 | 75 | 270 | 1.0 | 4.0 | 0.00 | 0.00 | 0.00 | 86 | 1014.5 |
| 20260904130018 | 75 | 270 | 2.0 | 3.0 | 0.00 | 0.00 | 0.00 | 86 | 1013.4 |
| 20260904124542 | 74 | 278 | 0.0 | 2.0 | 0.00 | 0.00 | 0.00 | 86 | 1014.4 |
| 20260904123040 | 74 | 278 | 1.0 | 3.0 | 0.00 | 0.00 | 0.00 | 86 | 1014.3 |
| 20260904121535 | 74 | 0 | 0.0 | 3.0 | 0.00 | 0.00 | 0.00 | 86 | 1014.0 |
| 20260904120033 | 73 | 277 | 1.0 | 2.0 | 0.00 | 0.00 | 0.00 | 86 | 1013.9 |
| 20260904120025 | 74 | 277 | 1.0 | 2.0 | 0.00 | 0.00 | 0.00 | 87 | 1012.8 |
| 20260904114543 | 74 | 254 | 1.0 | 4.0 | 0.00 | 0.00 | 0.00 | 86 | 1013.6 |
| 20260904113035 | 74 | 0 | 0.0 | 4.0 | 0.00 | 0.00 | 0.00 | 86 | 1013.4 |
| 20260904111542 | 74 | 267 | 1.0 | 4.0 | 0.00 | 0.00 | 0.00 | 85 | 1013.3 |
| 20260904110037 | 74 | 265 | 1.0 | 6.0 | 0.00 | 0.00 | 0.00 | 85 | 1013.4 |
| 20260904110035 | 74 | 265 | 1.0 | 5.0 | 0.00 | 0.00 | 0.00 | 85 | 1012.3 |
| 20260904104536 | 74 | 277 | 2.0 | 4.0 | 0.00 | 0.00 | 0.00 | 84 | 1013.4 |
| 20260904103038 | 75 | 0 | 0.0 | 5.0 | 0.00 | 0.00 | 0.00 | 83 | 1013.3 |
| 20260904101539 | 75 | 265 | 2.0 | 4.0 | 0.00 | 0.00 | 0.00 | 83 | 1013.2 |
| 20260904100036 | 75 | 271 | 1.0 | 4.0 | 0.00 | 0.00 | 0.00 | 83 | 1012.9 |
| 20260904100024 | 75 | 312 | 2.0 | 4.0 | 0.00 | 0.00 | 0.00 | 84 | 1012.1 |
| 20260904094538 | 74 | 292 | 0.0 | 6.0 | 0.00 | 0.00 | 0.00 | 85 | 1012.9 |
| 20260904093033 | 74 | 271 | 1.0 | 3.0 | 0.00 | 0.00 | 0.00 | 86 | 1012.6 |
| 20260904091535 | 73 | 0 | 0.0 | 2.0 | 0.00 | 0.00 | 0.00 | 86 | 1012.5 |
| 20260904090037 | 74 | 281 | 0.0 | 1.0 | 0.00 | 0.00 | 0.00 | 87 | 1011.5 |
| 20260904090034 | 73 | 0 | 0.0 | 1.0 | 0.00 | 0.00 | 0.00 | 86 | 1012.4 |
| 20260904084534 | 74 | 281 | 0.0 | 0.0 | 0.00 | 0.00 | 0.00 | 86 | 1012.3 |
| 20260904083036 | 74 | 0 | 0.0 | 1.0 | 0.00 | 0.00 | 0.00 | 86 | 1012.4 |
| 20260904081536 | 74 | 0 | 0.0 | 1.0 | 0.00 | 0.00 | 0.00 | 85 | 1012.2 |
| 20260904080036 | 74 | 0 | 0.0 | 2.0 | 0.00 | 0.00 | 0.00 | 84 | 1012.2 |
| 20260904080030 | 75 | 281 | 0.0 | 0.0 | 0.00 | 0.00 | 0.00 | 85 | 1011.2 |
| 20260904074540 | 75 | 0 | 0.0 | 1.0 | 0.00 | 0.00 | 0.00 | 84 | 1012.2 |
| 20260904073039 | 75 | 0 | 0.0 | 1.0 | 0.00 | 0.00 | 0.00 | 84 | 1012.2 |
| 20260904071537 | 76 | 0 | 0.0 | 0.0 | 0.00 | 0.00 | 0.00 | 83 | 1012.3 |
| 20260904070041 | 77 | 281 | 0.0 | 0.0 | 0.00 | 0.00 | 0.00 | 83 | 1011.3 |
| 20260904070033 | 76 | 0 | 0.0 | 0.0 | 0.00 | 0.00 | 0.00 | 83 | 1012.3 |
| 20260904064538 | 77 | 0 | 0.0 | 0.0 | 0.00 | 0.00 | 0.00 | 80 | 1012.5 |
| 20260904063049 | 77 | 0 | 0.0 | 1.0 | 0.00 | 0.00 | 0.00 | 79 | 1012.5 |
| 20260904061537 | 77 | 0 | 0.0 | 2.0 | 0.00 | 0.00 | 0.00 | 80 | 1012.5 |
| 20260904060058 | 77 | 281 | 0.0 | 1.0 | 0.00 | 0.00 | 0.00 | 81 | 1012.4 |
| 20260904060029 | 77 | 281 | 0.0 | 1.0 | 0.00 | 0.00 | 0.00 | 81 | 1011.4 |
| 20260904054536 | 77 | 0 | 0.0 | 1.0 | 0.00 | 0.00 | 0.00 | 80 | 1012.5 |
| 20260904053036 | 76 | 0 | 0.0 | 1.0 | 0.00 | 0.00 | 0.00 | 82 | 1012.4 |
| 20260904051534 | 76 | 0 | 0.0 | 1.0 | 0.00 | 0.00 | 0.00 | 82 | 1012.3 |
| 20260904050033 | 76 | 0 | 0.0 | 0.0 | 0.00 | 0.00 | 0.00 | 83 | 1012.3 |
| 20260904050023 | 77 | 281 | 0.0 | 0.0 | 0.00 | 0.00 | 0.00 | 83 | 1011.1 |
| 20260904044547 | 76 | 0 | 0.0 | 3.0 | 0.00 | 0.00 | 0.00 | 82 | 1012.2 |
| 20260904043037 | 76 | 0 | 0.0 | 0.0 | 0.00 | 0.00 | 0.00 | 84 | 1012.2 |
| 20260904041535 | 77 | 0 | 0.0 | 0.0 | 0.00 | 0.00 | 0.00 | 82 | 1011.9 |
| 20260904040039 | 77 | 0 | 0.0 | 0.0 | 0.00 | 0.00 | 0.00 | 82 | 1012.0 |
| 20260904040017 | 78 | 281 | 0.0 | 0.0 | 0.00 | 0.00 | 0.00 | 82 | 1010.9 |
| 20260904034544 | 78 | 0 | 0.0 | 0.0 | 0.00 | 0.00 | 0.00 | 80 | 1012.0 |
| 20260904033038 | 78 | 0 | 0.0 | 1.0 | 0.00 | 0.00 | 0.00 | 80 | 1011.9 |
| 20260904031533 | 78 | 0 | 0.0 | 1.0 | 0.00 | 0.00 | 0.00 | 80 | 1011.9 |
| 20260904030035 | 79 | 0 | 0.0 | 0.0 | 0.00 | 0.00 | 0.00 | 80 | 1011.9 |
| 20260904030021 | 79 | 281 | 0.0 | 0.0 | 0.00 | 0.00 | 0.00 | 80 | 1010.8 |
| 20260904024536 | 79 | 0 | 0.0 | 1.0 | 0.00 | 0.00 | 0.00 | 81 | 1011.6 |
| 20260904023036 | 79 | 0 | 0.0 | 1.0 | 0.00 | 0.00 | 0.00 | 80 | 1011.7 |
| 20260904021536 | 80 | 0 | 0.0 | 0.0 | 0.00 | 0.00 | 0.00 | 76 | 1011.5 |
| 20260904020039 | 81 | 0 | 0.0 | 0.0 | 0.00 | 0.00 | 0.00 | 75 | 1011.4 |
| 20260904020035 | 81 | 281 | 0.0 | 0.0 | 0.00 | 0.00 | 0.00 | 75 | 1010.4 |
| 20260904014542 | 82 | 0 | 0.0 | 0.0 | 0.00 | 0.00 | 0.00 | 72 | 1011.2 |
| 20260904013035 | 83 | 0 | 0.0 | 0.0 | 0.00 | 0.00 | 0.00 | 69 | 1011.0 |
| 20260904011538 | 85 | 0 | 0.0 | 0.0 | 0.00 | 0.00 | 0.00 | 65 | 1010.7 |
| 20260904010050 | 86 | 0 | 0.0 | 0.0 | 0.00 | 0.00 | 0.00 | 63 | 1010.4 |
| 20260904010024 | 87 | 281 | 0.0 | 0.0 | 0.00 | 0.00 | 0.00 | 64 | 1009.5 |
| 20260904004554 | 88 | 0 | 0.0 | 1.0 | 0.00 | 0.00 | 0.00 | 60 | 1010.5 |
| 20260904003035 | 90 | 0 | 0.0 | 1.0 | 0.00 | 0.00 | 0.00 | 58 | 1010.4 |
| 20260904001537 | 91 | 0 | 0.0 | 3.0 | 0.00 | 0.00 | 0.00 | 53 | 1010.5 |
| 20260904000038 | 93 | 245 | 2.0 | 6.0 | 0.00 | 0.00 | 0.00 | 49 | 1009.5 |
| 20260904000035 | 93 | 248 | 2.0 | 7.0 | 0.00 | 0.00 | 0.00 | 49 | 1010.4 |
| 20260903234541 | 94 | 278 | 2.0 | 9.0 | 0.00 | 0.00 | 0.00 | 47 | 1010.4 |